Tracking 35274 objects as of 11-Sep-2026
HD Live streaming from Space Station
objects crossing your sky now

STARLINK-5544

Track STARLINK-5544 now!
10-day predictions
STARLINK-5544 is classified as:


NORAD ID: 55757
Int'l Code: 2023-028S
Launch date: March 3, 2023
Source: United States (US)
Launch site: AIR FORCE WESTERN TEST RANGE (AFWTR)
Your satellite tracking list
Your tracking list is empty




NASA's NSSDC Master Catalog

Two Line Element Set (TLE):
1 55757U 23028S   26254.69622154  .00000682  00000-0  64954-4 0  9996
2 55757  69.9992 135.4077 0002760 270.1796  89.9047 14.98329039193906
Source of the keplerian elements: AFSPC